Ram MODELS

About Ram


RECENT QUOTES

What you see here are REAL quotes for REAL people all over the country. Don‘t get left out, fill out your information below to get a quote.

Vehicle Part Quote Date Location
2014 Ram 1500 Windshield with rain sensor $522.95 09/20/20 Petal, MS 39465
2014 Ram 1500 Windshield $522.95 09/17/20 Vacaville, CA 95687
2015 Ram 1500 Back glass-3 piece slider-clear $698.13 09/12/20 Ponchatoula, LA 70454
2016 Ram 1500 Back glass-heated-privacy tint-left $479.61 09/05/20 Tulsa, OK 74133
2013 Ram 1500 Back glass-non heated-clear-no defrost $329.85 09/04/20 Buford, GA 30519
2018 Ram PICKUP 3500 Windshield with rain sensor and heated wiper park area $480.36 09/01/20 Mchenry, IL 60051
2019 Ram 2500 Windshield with rain sensor $691.27 08/29/20 Albuquerque, NM 87120
2017 Ram ProMaster 1500 Windshield with electrochromic mirror $395.07 08/22/20 Princeton, TX 75407
2016 Ram 1500 Windshield $480.36 08/18/20 Olivehurst, CA 95961
2019 Ram 1500 Windshield $867.13 08/16/20 Hutto, TX 78634
2019 Ram 1500 Classic Windshield with Logo $323.19 08/15/20 Chino, CA 91710
2018 Ram PICKUP 1500 Windshield $480.36 08/12/20 Hominy, OK 74035
2019 Ram 1500 Windshield with rain sensor $867.13 08/09/20 Prairie Village, KS 66208
2019 Ram 1500 Windshield with rain sensor $861.81 07/23/20 Denham Springs, LA 70706
2017 Ram ProMaster 1500 Windshield $380.00 07/19/20 Daly City, CA 94014
2014 Ram 1500 Windshield with rain sensor and heated wiper park area $475.11 07/18/20 Meraux, LA 70075
2020 Ram 1500 Windshield $386.59 07/16/20 Saint Louis, MO 63147
2017 Ram ProMaster 1500 Windshield $475.11 07/13/20 Baltimore, MD 21205
2013 Ram 1500 Back glass-heated-privacy tint-right $324.60 07/13/20 Gramercy, LA 70052
2013 Ram 1500 Windshield $480.36 07/11/20 Temple, TX 76504
2016 Ram 1500 Back glass-3 piece slider-privacy tinted $319.35 07/05/20 Allentown, PA 18106
2012 Ram 1500 Windshield $444.23 07/03/20 Lake City, TN 37769
2019 Ram 1500 Windshield with rain sensor $395.00 06/23/20 La Quinta, CA 92253
2013 Ram 1500 Windshield with rain sensor $298.08 06/08/20 Cleveland, OH 44121
2014 Ram 2500 Windshield $298.08 05/28/20 Hanska, MN 56041
2019 Ram 1500 Windshield $445.55 05/25/20 Cumming, GA 30028
2019 Ram 1500 Classic Back glass-3 piece slider-privacy tinted $398.90 05/22/20 Buffalo, NY 14223
2020 Ram 1500 Back glass-3 piece slider-privacy tinted $1009.29 05/16/20 Buffalo, NY 14223
2017 Ram ProMaster 2500 Windshield $360.55 05/02/20 Pueblo, CO 81007
2013 Ram 1500 Windshield $304.09 04/27/20 Debary, FL 32713
2013 Ram 1500 Windshield $304.09 04/23/20 Eldridge, IA 52748
2018 Ram PICKUP 1500 Back glass-4 piece slider-privacy tinted $618.37 04/21/20 Holt, MO 64048
2016 Ram 2500 Windshield with Logo $389.00 04/04/20 Roseville, CA 95747
2017 Ram ProMaster 1500 Windshield with rain sensor $360.55 04/02/20 Iona, MN 56141
2019 Ram 1500 Windshield $477.85 03/15/20 Kingsville, TX 78363
2017 Ram ProMaster 2500 Windshield $360.55 03/11/20 Carlsbad, CA 92008
2011 Ram 1500 Windshield with Logo $462.82 02/25/20 Twin Lakes, WI 53181
2013 Ram 1500 Windshield $304.00 02/23/20 Grandview, MO 64030
2012 Ram 2500 Truck back glass-movable-power-privacy tint $644.55 02/20/20 Bakersfield, CA 93314
2012 Ram 1500 Windshield $287.46 02/15/20 Bloomfield, NM 87413
2018 Ram PICKUP 2500 Windshield with rain sensor and heated wiper park area $338.58 02/15/20 Casper, WY 82609
2014 Ram 1500 Windshield $304.00 02/13/20 Turkey, TX 79261
2012 Ram 1500 Windshield $287.46 02/12/20 Glasgow, KY 42141
2018 Ram PICKUP 1500 Windshield with rain sensor $338.58 02/07/20 Norwich, CT 06360
2016 Ram 1500 Windshield $304.00 02/05/20 Cleveland, OH 44109
2016 Ram 2500 Windshield with rain sensor $338.58 01/28/20 Albuquerque, NM 87120
2018 Ram PICKUP 2500 Passenger rear door glass $300.00 01/26/20 San Ramon, CA 94583
2012 Ram 1500 Driver front door glass $267.60 01/23/20 Topeka, KS 66614
2014 Ram 1500 Windshield $304.09 01/21/20 Enterprise, AL 36330
2012 Ram 1500 Windshield $287.46 01/14/20 Bristow, OK 74010
2018 Ram PICKUP 3500 Windshield $304.09 01/12/20 Wharton, TX 77488
2016 Ram 1500 Windshield $304.09 01/07/20 Wasco, CA 93280
2014 Ram 1500 Windshield $304.09 01/05/20 Phenix City, AL 36867
2018 Ram PICKUP 2500 Back glass-non heated-privacy tint-no defrost $1039.96 12/29/19 Mabank, TX 75156
2013 Ram 1500 Windshield $304.09 12/28/19 Anthony, TX 79821
2015 Ram 3500 Windshield $304.10 12/16/19 Claremore, OK 74019
2014 Ram 1500 Windshield $304.09 12/13/19 Schenectady, NY 12345
2013 Ram 1500 Windshield with heads up display (HUD) $304.09 12/10/19 Plantersville, TX 77363
2013 Ram 1500 Windshield $306.61 12/08/19 Stockton, CA 95206
2014 Ram 1500 Windshield $304.09 12/07/19 Stockdale, PA 15483
2016 Ram 1500 Windshield $304.09 12/04/19 Rowlett, TX 75089
2011 Ram 1500 Back glass $296.33 11/29/19 Granbury, TX 76049
2014 Ram 1500 Windshield $312.70 11/25/19 Fairfax, VA 22033
2014 Ram 1500 Windshield $304.09 11/25/19 Huntsville, AL 35811
2013 Ram 1500 Windshield $309.34 11/21/19 Pierson, MI 49339
2018 Ram PICKUP 2500 Windshield $309.34 11/21/19 Muscatine, IA 52761
2011 Ram 1500 Windshield $292.71 11/19/19 Springfield, MO 65810
2018 Ram PICKUP 1500 Windshield with rain sensor $343.83 11/19/19 Sherman, TX 75090
2012 Ram 1500 Back glass $301.58 11/18/19 Noblesville, IN 46062
2016 Ram 3500 Back glass-3 piece slider-privacy tinted $752.75 11/16/19 Guthrie, OK 73044
2012 Ram 1500 Windshield $292.71 11/11/19 Texico, NM 88135
2011 Ram 1500 Windshield $292.71 11/11/19 Hallstead, PA 18822
2015 Ram 1500 Windshield with rain sensor $343.83 11/11/19 Belgrade, MT 59714
2016 Ram 1500 Windshield $309.34 11/09/19 Bethlehem, GA 30620
2018 Ram PICKUP 1500 Windshield $309.34 11/09/19 West Salem, WI 54669
2018 Ram PICKUP 2500 Windshield with rain sensor $343.83 11/08/19 Bowling Green, KY 42103
2016 Ram 1500 Windshield $309.34 11/02/19 Riverside, CA 92508
2012 Ram 1500 Windshield $292.71 10/30/19 Columbus, NE 68601
2012 Ram 1500 Windshield $292.71 10/27/19 Crockett, TX 75835
2014 Ram ProMaster 2500 Windshield $366.00 10/27/19 Faribault, MN 55021
2014 Ram 1500 Windshield $350.00 10/25/19 Redwood City, CA 94061
2014 Ram 3500 Driver front door glass $272.85 10/24/19 Cartwright, OK 74731
2017 Ram ProMaster 3500 Passenger front door glass $276.68 10/19/19 Memphis, TN 37501
2015 Ram 1500 Windshield $309.34 10/19/19 Beulah, WY 82712
2013 Ram 1500 Windshield $309.34 10/11/19 Grand Forks Afb, ND 58204
2013 Ram 1500 Windshield $309.34 10/06/19 Columbia, TN 38401
2011 Ram 1500 Windshield $292.71 10/01/19 Burnsville, MN 55337
2016 Ram 1500 Windshield $309.34 09/28/19 Portland, ME 04103
2012 Ram 2500 Windshield with Logo $468.07 09/27/19 Elkhart, IN 46516
2018 Ram PICKUP 1500 Windshield $309.34 09/19/19 Greenville, NC 27834
2014 Ram 2500 Back glass $301.58 09/18/19 Quinlan, TX 75474
2013 Ram 1500 Windshield $309.34 09/18/19 Saint Louis, MO 63108
2017 Ram ProMaster 3500 Back glass-non heated-privacy tint-no defrost $282.00 09/18/19 Bartlesville, OK 74006
2014 Ram 1500 Door glass-sliding-passenger side $277.85 09/13/19 Odum, GA 31555
2015 Ram 3500 Windshield $309.34 08/29/19 Magnolia, TX 77354
2016 Ram 1500 Windshield $311.44 07/18/19 Nevis, MN 56467
2016 Ram 1500 Windshield $311.44 07/17/19 Canton, MI 48187
2013 Ram 1500 Windshield $308.37 07/12/19 Toledo, OH 43612
2016 Ram 1500 Windshield $308.37 07/11/19 Salt Lake City, UT 84120
2012 Ram 1500 Passenger front door glass $279.29 07/10/19 Santa Fe, NM 87501
2016 Ram 1500 Windshield $481.69 07/07/19 Levittown, NY 11756
2015 Ram 1500 Windshield $308.37 07/05/19 Dewar, OK 74431
2015 Ram 1500 Windshield $308.37 06/29/19 Racine, WI 53406
2014 Ram 1500 Windshield with Logo $831.87 02/27/19 Carrboro, NC 27510
2014 Ram 1500 Windshield $298.66 12/18/18 Murfreesboro, TN 37128
2013 Ram 1500 Windshield $298.66 11/28/18 Union City, TN 38261
2013 Ram 1500 Windshield with rain sensor and heated wiper park area $492.18 11/15/18 Tishomingo, OK 73460
2011 Ram 1500 Windshield with Logo $410.75 10/19/18 Knoxville, TN 37902
2016 Ram 2500 Windshield-rain sensor-solar soated-with forward collision alert-with intelligent hibeams $352.44 10/12/18 Blacksburg, VA 24060
2014 Ram 1500 Windshield $470.79 09/09/18 Eden, NC 27288
2014 Ram C/V Windshield $326.36 08/21/18 Harmony, ME 04942
2015 Ram 1500 Windshield $513.11 08/20/18 Coahoma, TX 79511
2016 Ram 1500 Windshield with rain sensor $329.32 07/20/18 Levittown, PA 19055
2011 Ram 1500 Back glass-3 piece slider-privacy tinted $650.00 06/23/18 Sunnyvale, CA 94087
2016 Ram 1500 Windshield $300.62 06/16/18 Wasilla, AK 99654
2014 Ram 1500 Windshield with rain sensor $329.32 06/10/18 Orange, TX 77632
2012 Ram 1500 Back glass-3 piece slider-privacy tinted $592.26 05/20/18 Isanti, MN 55040
2017 Ram ProMaster 1500 Windshield $343.07 05/03/18 New Hartford, NY 13413
2016 Ram 1500 Windshield $294.58 04/17/18 Worland, WY 82401
2016 Ram 1500 Truck back glass-movable-power-privacy tint $591.03 02/26/18 Jacksonville, FL 32216
2012 Ram 1500 Windshield $280.16 02/06/18 Atlanta, GA 30314
2014 Ram 1500 Truck back glass-movable-power-privacy tint $588.51 01/30/18 Richmond, VA 23228
2014 Ram 3500 Windshield $298.52 01/28/18 Hurricane, UT 84737
2015 Ram 1500 Windshield with rain sensor $290.76 01/21/18 Beverly Hills, CA 90210
2014 Ram 1500 Windshield $301.18 12/16/17 Buena Vista, CO 81211
2017 Ram ProMaster 3500 Windshield $375.61 12/14/17 Detroit, MI 48207
2013 Ram 2500 Windshield $303.14 10/03/17 Del Valle, TX 78617
2016 Ram 1500 Windshield with rain sensor $464.28 09/27/17 Valdosta, GA 31605
2013 Ram 1500 Windshield $464.28 09/20/17 Perrysburg, OH 43551
2011 Ram 1500 Windshield $282.51 09/13/17 Goldsboro, NC 27534
2011 Ram 1500 Windshield $270.39 08/07/17 Spencer, OK 73084
2014 Ram 1500 Truck back glass-movable-power-privacy tint $558.78 08/06/17 Slinger, WI 53086
2013 Ram 1500 Windshield $435.62 07/30/17 Ottumwa, IA 52501
2012 Ram 1500 Windshield $268.03 07/12/17 Rantoul, KS 66079
2011 Ram 1500 Windshield solar coated with third visor frit $268.03 07/07/17 Elizabeth, CO 80107
2017 Ram ProMaster 1500 Back glass-3 piece slider-privacy tinted $413.83 06/20/17 Manahawkin, NJ 08050
2011 Ram 1500 Driver front door glass $270.37 06/18/17 Sacramento, CA 95811
2012 Ram 1500 Windshield $276.78 06/14/17 El Paso, TX 79902
2013 Ram 1500 Windshield with rain sensor and heated wiper park area $339.30 06/09/17 El Paso, TX 79902
2013 Ram 1500 Windshield $461.13 06/05/17 Polson, MT 59860
2011 Ram 1500 Windshield $257.53 05/15/17 Freeburg, IL 62243
2014 Ram 1500 Windshield with Logo $423.02 04/15/17 New Orleans, LA 70117
2012 Ram 1500 Windshield with Logo $372.87 04/11/17 U S A F Academy, CO 80902
2016 Ram 1500 Windshield $417.77 04/10/17 Mount Olive, AL 35117
2013 Ram 1500 Back glass-heated-dark privacy tint-with defrost $292.19 03/23/17 Anniston, AL 36207
2012 Ram 1500 Windshield $269.43 03/08/17 Farmington, MN 55024
2014 Ram 1500 Windshield with rain sensor and heated wiper park area $460.16 03/02/17 Stamford, NY 12167
2015 Ram 1500 Windshield $250.00 02/17/17 Norwalk, CA 90650
2014 Ram 1500 Windshield $462.44 02/17/17 Wichita, KS 67235
2014 Ram 1500 Windshield with Logo $479.00 02/08/17 Houston, TX 77080
2015 Ram 1500 Windshield $301.04 01/24/17 Saint Louis, MO 63139
2014 Ram 1500 Windshield with electrochromic mirror and rain sensor $376.94 01/12/17 Tomball, TX 77377
2011 Ram 1500 Windshield with heated wiper park area $277.25 01/02/17 Sand Springs, OK 74063
2015 Ram 1500 Windshield $299.99 12/30/16 Wilbur, WA 99185
2011 Ram 3500 Windshield $278.98 12/15/16 Miamisburg, OH 45342
2012 Ram 1500 Windshield $278.98 12/13/16 Marana, AZ 85658
2013 Ram 1500 Windshield $372.30 12/12/16 Manchester, NH 03103
2016 Ram 1500 Windshield $301.08 11/28/16 Shadyside, OH 43947
2012 Ram 1500 Windshield $278.98 11/21/16 Siloam Springs, AR 72761
2015 Ram 1500 Windshield $239.00 11/05/16 Houston, TX 77053
2016 Ram 1500 Passenger front door glass bronze tint $185.00 11/03/16 Houston, TX 77047
2016 Ram 1500 Windshield with rain sensor and heated wiper park area $300.02 10/24/16 Tomball, TX 77375
2015 Ram 1500 Windshield $229.00 10/24/16 Roseville, CA 95747
2014 Ram 3500 Windshield with rain sensor $339.47 10/20/16 Kaufman, TX 75142
2011 Ram 1500 Driver front door glass $275.88 10/17/16 Clinton, NC 28328
2015 Ram 1500 Windshield $300.02 10/12/16 Kissimmee, FL 34741
2014 Ram 2500 Windshield with rain sensor $339.47 10/08/16 Beaumont, TX 77701
2014 Ram 1500 Back glass-3 piece slider-privacy tinted $346.50 09/15/16 Olalla, WA 98359
2013 Ram 2500 Windshield $301.85 08/29/16 Nags Head, NC 27959
2011 Ram 1500 Windshield with Logo $266.38 08/20/16 Hidalgo, TX 78557
2014 Ram 1500 Windshield $293.73 08/18/16 Trumann, AR 72472
2012 Ram 2500 Windshield $275.83 08/16/16 Fort Riley, KS 66442
2014 Ram 1500 Windshield with rain sensor $333.17 08/06/16 Colorado Springs, CO 80923
2014 Ram 1500 Truck back glass-movable-power-privacy tint-heated $646.58 07/23/16 Irwin, PA 15642
2013 Ram 2500 Windshield with rain sensor $333.17 07/22/16 Corpus Christi, TX 78416
2015 Ram 1500 Windshield with condensation sensor and humidity sensor $615.86 07/16/16 Washington DC, DC 20202
2011 Ram 1500 Windshield $271.63 07/11/16 Largo, FL 33778
2014 Ram 3500 Windshield $295.55 07/11/16 Killdeer, ND 58640
2014 Ram 1500 Windshield with rain sensor $298.70 06/23/16 Johnson City, TN 37615
2015 Ram 3500 Windshield $296.87 06/21/16 Magnolia, TX 77354
2012 Ram 1500 Windshield with Logo $384.18 06/20/16 New Iberia, LA 70560
2011 Ram 3500 Windshield with Logo $274.78 06/20/16 Molalla, OR 97038
2012 Ram 1500 Windshield $283.15 06/17/16 Swedesboro, NJ 08085
2013 Ram 1500 Windshield $271.42 05/25/16 Oklahoma City, OK 73160
2012 Ram 1500 Windshield $280.00 05/23/16 Hobbs, NM 88240
2014 Ram 1500 Windshield $303.78 05/21/16 Danville, IL 61834
2012 Ram 1500 Windshield solar coated with third visor frit $285.78 05/10/16 San Antonio, TX 78264
2011 Ram 1500 Windshield $178.25 05/08/16 Austin, TX 78704
2012 Ram 1500 Windshield $280.60 04/30/16 Neche, ND 58265
2015 Ram 1500 Back glass-3 piece slider-clear $629.78 04/24/16 Neosho, MO 64850
2013 Ram 3500 Passenger rear door glass $270.49 04/24/16 Cibolo, TX 78108
2014 Ram 1500 Windshield $293.70 04/24/16 Slidell, LA 70461
2011 Ram 1500 Windshield $280.50 04/23/16 Saint Louis, MO 63129
2014 Ram 1500 Back glass-non heated-privacy tint-no defrost $629.77 04/23/16 Downsville, LA 71234
2012 Ram 1500 Back glass-3 piece slider-privacy tinted $598.87 04/21/16 Oklahoma City, OK 73116
2013 Ram 2500 Windshield $293.70 04/19/16 Orofino, ID 83544
2012 Ram 1500 Windshield with Logo $402.07 04/07/16 New Orleans, LA 70127
2011 Ram 1500 Windshield $280.50 04/03/16 Lexington, OK 73051
2012 Ram 2500 Windshield $275.25 04/03/16 Angel Fire, NM 87710
2013 Ram 1500 Back glass-passenger side $265.25 03/31/16 Channelview, TX 77530
Leave Comment